GSAT0232 (GALILEO 32)

Last updated on Wed Oct 29 2025 00:02:35 GMT+0000 (Coordinated Universal Time)

1 61182U 24167A 25300.69067059 .00000008 00000+0 00000+0 0 9996 2 61182 55.2589 227.6944 0003392 232.0687 306.7554 1.70473418 6914
UTC large
Height (km)
Speed (km/s)
/
Latitude / Longitude
Inclination (degrees)
Orbital Period (minutes)
Azimuth
Elevation
Range (km)
Doppler Factor

Next 0 passes for location: London (51.5072 / 0.1276)

Sorry there are no passes over London.